Time,TemperatureF,DewpointF,PressureIn,WindDirection,WindDirectionDegrees,WindSpeedMPH,WindSpeedGustMPH,Humidity,HourlyPrecipIn,Conditions,Clouds,dailyrainin,SoftwareType,DateUTC
2013-03-10 00:02:00,35.0,26.0,30.22,SE,134,3.0,-999.0,69,-99.99,,,-99.99,,2013-03-10 05:02:00,
2013-03-10 00:11:00,35.0,26.0,30.22,SE,134,3.0,-999.0,69,-99.99,,,-99.99,,2013-03-10 05:11:00,
2013-03-10 00:22:00,35.0,26.0,30.22,SE,134,1.0,-999.0,68,-99.99,,,-99.99,,2013-03-10 05:22:00,
2013-03-10 00:32:00,35.0,26.0,30.22,SE,134,3.0,-999.0,68,-99.99,,,-99.99,,2013-03-10 05:32:00,
2013-03-10 00:42:00,35.0,26.0,30.21,SE,134,2.0,-999.0,69,-99.99,,,-99.99,,2013-03-10 05:42:00,
2013-03-10 00:52:00,35.0,26.0,30.21,SE,134,2.0,-999.0,69,-99.99,,,-99.99,,2013-03-10 05:52:00,
2013-03-10 01:02:00,35.0,26.0,30.20,SE,134,1.0,-999.0,70,-99.99,,,-99.99,,2013-03-10 06:02:00,
2013-03-10 01:11:00,35.0,26.0,30.20,SE,134,1.0,-999.0,70,-99.99,,,-99.99,,2013-03-10 06:11:00,
2013-03-10 01:22:00,34.0,25.0,30.20,SE,134,2.0,-999.0,70,-99.99,,,-99.99,,2013-03-10 06:22:00,
2013-03-10 01:32:00,35.0,27.0,30.19,SE,134,2.0,-999.0,71,-99.99,,,-99.99,,2013-03-10 06:32:00,
2013-03-10 01:42:00,35.0,27.0,30.19,SE,134,2.0,-999.0,71,-99.99,,,-99.99,,2013-03-10 06:42:00,
2013-03-10 01:52:00,35.0,26.0,30.19,SE,134,2.0,-999.0,70,-99.99,,,-99.99,,2013-03-10 06:52:00,
2013-03-10 03:02:00,35.0,27.0,30.18,SE,134,1.0,-999.0,71,-99.99,,,-99.99,,2013-03-10 07:02:00,
2013-03-10 03:11:00,35.0,27.0,30.18,SE,134,1.0,-999.0,71,-99.99,,,-99.99,,2013-03-10 07:11:00,
2013-03-10 03:21:00,36.0,27.0,30.17,SE,132,3.0,-999.0,70,-99.99,,,-99.99,,2013-03-10 07:21:00,
2013-03-10 03:32:00,36.0,27.0,30.16,SE,140,2.0,-999.0,69,-99.99,,,-99.99,,2013-03-10 07:32:00,
2013-03-10 03:42:00,37.0,27.0,30.16,SE,143,3.0,-999.0,67,-99.99,,,-99.99,,2013-03-10 07:42:00,
2013-03-10 03:52:00,37.0,27.0,30.16,SE,143,3.0,-999.0,67,-99.99,,,-99.99,,2013-03-10 07:52:00,
2013-03-10 04:01:00,37.0,27.0,30.15,SE,143,2.0,-999.0,67,-99.99,,,-99.99,,2013-03-10 08:01:00,
2013-03-10 04:11:00,37.0,27.0,30.15,SE,143,2.0,-999.0,67,-99.99,,,-99.99,,2013-03-10 08:11:00,
2013-03-10 04:21:00,37.0,27.0,30.15,SE,142,2.0,-999.0,66,-99.99,,,-99.99,,2013-03-10 08:21:00,
2013-03-10 04:32:00,38.0,27.0,30.14,SSE,148,2.0,-999.0,63,-99.99,,,-99.99,,2013-03-10 08:32:00,
2013-03-10 04:42:00,38.0,27.0,30.14,SSE,148,2.0,-999.0,63,-99.99,,,-99.99,,2013-03-10 08:42:00,
2013-03-10 04:52:00,39.0,27.0,30.13,SE,145,5.0,-999.0,61,-99.99,,,-99.99,,2013-03-10 08:52:00,
2013-03-10 05:02:00,39.0,26.0,30.13,SE,145,4.0,-999.0,60,-99.99,,,-99.99,,2013-03-10 09:02:00,
2013-03-10 05:11:00,39.0,26.0,30.13,SE,145,4.0,-999.0,60,-99.99,,,-99.99,,2013-03-10 09:11:00,
2013-03-10 05:21:00,39.0,26.0,30.13,SE,144,4.0,-999.0,60,-99.99,,,-99.99,,2013-03-10 09:21:00,
2013-03-10 05:31:00,39.0,26.0,30.13,SE,146,4.0,-999.0,60,-99.99,,,-99.99,,2013-03-10 09:31:00,
2013-03-10 05:41:00,39.0,26.0,30.13,SE,146,4.0,-999.0,60,-99.99,,,-99.99,,2013-03-10 09:41:00,
2013-03-10 05:52:00,39.0,26.0,30.13,SSE,148,4.0,-999.0,59,-99.99,,,-99.99,,2013-03-10 09:52:00,
2013-03-10 06:01:00,39.0,26.0,30.13,SE,145,3.0,-999.0,59,-99.99,,,-99.99,,2013-03-10 10:01:00,
2013-03-10 06:11:00,39.0,26.0,30.13,SE,145,3.0,-999.0,59,-99.99,,,-99.99,,2013-03-10 10:11:00,
2013-03-10 06:21:00,40.0,26.0,30.12,SE,144,4.0,-999.0,58,-99.99,,,-99.99,,2013-03-10 10:21:00,
2013-03-10 06:32:00,40.0,26.0,30.11,SE,142,3.0,-999.0,58,-99.99,,,-99.99,,2013-03-10 10:32:00,
2013-03-10 06:42:00,39.0,26.0,30.11,SE,140,3.0,-999.0,59,-99.99,,,-99.99,,2013-03-10 10:42:00,
2013-03-10 06:52:00,39.0,26.0,30.11,SE,140,3.0,-999.0,59,-99.99,,,-99.99,,2013-03-10 10:52:00,
2013-03-10 07:01:00,39.0,26.0,30.11,SE,140,3.0,-999.0,59,-99.99,,,-99.99,,2013-03-10 11:01:00,
2013-03-10 07:12:00,39.0,26.0,30.11,SE,140,3.0,-999.0,59,-99.99,,,-99.99,,2013-03-10 11:12:00,
2013-03-10 07:21:00,39.0,26.0,30.11,SE,139,3.0,-999.0,59,-99.99,,,-99.99,,2013-03-10 11:21:00,
2013-03-10 07:32:00,40.0,27.0,30.11,SE,139,3.0,-999.0,59,-99.99,,,-99.99,,2013-03-10 11:32:00,
2013-03-10 07:42:00,40.0,27.0,30.11,SE,139,3.0,-999.0,59,-99.99,,,-99.99,,2013-03-10 11:42:00,
2013-03-10 07:52:00,40.0,26.0,30.11,SE,141,2.0,-999.0,57,-99.99,,,-99.99,,2013-03-10 11:52:00,
2013-03-10 08:02:00,41.0,27.0,30.11,SE,145,2.0,-999.0,56,-99.99,,,-99.99,,2013-03-10 12:02:00,
2013-03-10 08:11:00,41.0,27.0,30.11,SE,145,2.0,-999.0,56,-99.99,,,-99.99,,2013-03-10 12:11:00,
2013-03-10 08:21:00,41.0,26.0,30.11,SE,145,1.0,-999.0,55,-99.99,,,-99.99,,2013-03-10 12:21:00,
2013-03-10 08:31:00,42.0,27.0,30.11,SE,146,3.0,-999.0,54,-99.99,,,-99.99,,2013-03-10 12:31:00,
2013-03-10 08:42:00,42.0,27.0,30.11,SE,146,3.0,-999.0,54,-99.99,,,-99.99,,2013-03-10 12:42:00,
2013-03-10 08:52:00,42.0,27.0,30.11,SE,146,3.0,-999.0,54,-99.99,,,-99.99,,2013-03-10 12:52:00,
2013-03-10 09:01:00,43.0,25.0,30.10,SSE,154,3.0,-999.0,49,-99.99,,,-99.99,,2013-03-10 13:01:00,
2013-03-10 09:11:00,43.0,25.0,30.10,SSE,154,3.0,-999.0,49,-99.99,,,-99.99,,2013-03-10 13:11:00,
2013-03-10 09:21:00,45.0,26.0,30.10,SSE,150,3.0,-999.0,47,-99.99,,,-99.99,,2013-03-10 13:21:00,
2013-03-10 09:32:00,45.0,26.0,30.10,SE,138,3.0,-999.0,47,-99.99,,,-99.99,,2013-03-10 13:32:00,
2013-03-10 09:42:00,45.0,26.0,30.10,SE,138,3.0,-999.0,47,-99.99,,,-99.99,,2013-03-10 13:42:00,
2013-03-10 09:52:00,45.0,26.0,30.10,SE,138,3.0,-999.0,47,-99.99,,,-99.99,,2013-03-10 13:52:00,
2013-03-10 10:02:00,46.0,26.0,30.10,SE,143,3.0,-999.0,46,-99.99,,,-99.99,,2013-03-10 14:02:00,
2013-03-10 10:11:00,46.0,26.0,30.10,SE,143,3.0,-999.0,46,-99.99,,,-99.99,,2013-03-10 14:11:00,
2013-03-10 10:22:00,46.0,26.0,30.10,SSE,153,3.0,-999.0,45,-99.99,,,-99.99,,2013-03-10 14:22:00,
2013-03-10 10:32:00,49.0,27.0,30.10,SE,142,4.0,-999.0,43,-99.99,,,-99.99,,2013-03-10 14:32:00,
2013-03-10 10:42:00,49.0,27.0,30.10,SE,142,4.0,-999.0,43,-99.99,,,-99.99,,2013-03-10 14:42:00,
2013-03-10 10:52:00,51.0,26.0,30.09,SSE,148,4.0,-999.0,38,-99.99,,,-99.99,,2013-03-10 14:52:00,
2013-03-10 11:01:00,52.0,26.0,30.09,SSW,192,4.0,-999.0,36,-99.99,,,-99.99,,2013-03-10 15:01:00,
2013-03-10 11:11:00,52.0,26.0,30.09,SSW,192,4.0,-999.0,36,-99.99,,,-99.99,,2013-03-10 15:11:00,
2013-03-10 11:21:00,53.0,25.0,30.09,South,175,5.0,-999.0,33,-99.99,,,-99.99,,2013-03-10 15:21:00,
2013-03-10 11:32:00,54.0,25.0,30.09,South,171,4.0,-999.0,32,-99.99,,,-99.99,,2013-03-10 15:32:00,
2013-03-10 11:42:00,54.0,25.0,30.09,South,171,4.0,-999.0,32,-99.99,,,-99.99,,2013-03-10 15:42:00,
2013-03-10 11:52:00,54.0,24.0,30.08,SSE,155,5.0,-999.0,31,-99.99,,,-99.99,,2013-03-10 15:52:00,
2013-03-10 12:02:00,54.0,24.0,30.08,South,176,5.0,-999.0,31,-99.99,,,-99.99,,2013-03-10 16:02:00,
2013-03-10 12:12:00,54.0,24.0,30.08,South,176,5.0,-999.0,31,-99.99,,,-99.99,,2013-03-10 16:12:00,
2013-03-10 12:21:00,55.0,25.0,30.08,SSE,154,5.0,-999.0,31,-99.99,,,-99.99,,2013-03-10 16:21:00,
2013-03-10 12:32:00,55.0,24.0,30.08,South,169,6.0,-999.0,30,-99.99,,,-99.99,,2013-03-10 16:32:00,
2013-03-10 12:41:00,55.0,24.0,30.08,South,169,6.0,-999.0,30,-99.99,,,-99.99,,2013-03-10 16:41:00,
2013-03-10 12:52:00,55.0,24.0,30.06,SSE,163,6.0,-999.0,30,-99.99,,,-99.99,,2013-03-10 16:52:00,
2013-03-10 13:01:00,55.0,26.0,30.06,South,170,4.0,-999.0,33,-99.99,,,-99.99,,2013-03-10 17:01:00,
2013-03-10 13:11:00,55.0,26.0,30.06,South,170,4.0,-999.0,33,-99.99,,,-99.99,,2013-03-10 17:11:00,
2013-03-10 13:21:00,55.0,26.0,30.06,South,173,3.0,-999.0,33,-99.99,,,-99.99,,2013-03-10 17:21:00,
2013-03-10 13:31:00,55.0,27.0,30.06,SSE,163,4.0,-999.0,34,-99.99,,,-99.99,,2013-03-10 17:31:00,
2013-03-10 13:41:00,55.0,27.0,30.06,SSE,163,4.0,-999.0,34,-99.99,,,-99.99,,2013-03-10 17:41:00,
2013-03-10 13:51:00,56.0,28.0,30.05,SSE,154,5.0,-999.0,34,-99.99,,,-99.99,,2013-03-10 17:51:00,
2013-03-10 14:01:00,56.0,29.0,30.04,SSE,150,5.0,-999.0,35,-99.99,,,-99.99,,2013-03-10 18:01:00,
2013-03-10 14:11:00,56.0,29.0,30.04,SSE,150,5.0,-999.0,35,-99.99,,,-99.99,,2013-03-10 18:11:00,
2013-03-10 14:22:00,56.0,29.0,30.03,SSE,163,4.0,-999.0,36,-99.99,,,-99.99,,2013-03-10 18:22:00,
2013-03-10 14:32:00,58.0,28.0,30.03,South,174,5.0,-999.0,32,-99.99,,,-99.99,,2013-03-10 18:32:00,
2013-03-10 14:42:00,58.0,28.0,30.03,South,174,5.0,-999.0,32,-99.99,,,-99.99,,2013-03-10 18:42:00,
2013-03-10 14:52:00,59.0,28.0,30.03,SSW,204,6.0,-999.0,30,-99.99,,,-99.99,,2013-03-10 18:52:00,
2013-03-10 15:01:00,59.0,28.0,30.02,South,178,6.0,-999.0,30,-99.99,,,-99.99,,2013-03-10 19:01:00,
2013-03-10 15:11:00,59.0,28.0,30.02,South,178,6.0,-999.0,30,-99.99,,,-99.99,,2013-03-10 19:11:00,
2013-03-10 15:22:00,60.0,28.0,30.01,SE,138,6.0,-999.0,29,-99.99,,,-99.99,,2013-03-10 19:22:00,
2013-03-10 15:32:00,61.0,29.0,30.01,SSE,168,7.0,-999.0,29,-99.99,,,-99.99,,2013-03-10 19:32:00,
2013-03-10 15:42:00,61.0,29.0,30.01,SSE,168,7.0,-999.0,29,-99.99,,,-99.99,,2013-03-10 19:42:00,
2013-03-10 15:53:00,61.0,29.0,29.99,South,175,8.0,-999.0,29,-99.99,,,-99.99,,2013-03-10 19:53:00,
2013-03-10 16:02:00,61.0,29.0,29.99,South,174,7.0,-999.0,29,-99.99,,,-99.99,,2013-03-10 20:02:00,
2013-03-10 16:12:00,61.0,29.0,29.99,South,174,7.0,-999.0,29,-99.99,,,-99.99,,2013-03-10 20:12:00,
2013-03-10 16:22:00,61.0,29.0,29.99,South,174,7.0,-999.0,29,-99.99,,,-99.99,,2013-03-10 20:22:00,
2013-03-10 16:32:00,61.0,30.0,29.97,SSE,165,7.0,-999.0,31,-99.99,,,-99.99,,2013-03-10 20:32:00,
2013-03-10 16:43:00,61.0,30.0,29.97,SSE,165,7.0,-999.0,31,-99.99,,,-99.99,,2013-03-10 20:43:00,
2013-03-10 16:53:00,61.0,29.0,29.96,ESE,117,7.0,-999.0,30,-99.99,,,-99.99,,2013-03-10 20:53:00,
2013-03-10 17:02:00,61.0,30.0,29.97,SSE,167,8.0,-999.0,31,-99.99,,,-99.99,,2013-03-10 21:02:00,
2013-03-10 17:12:00,61.0,30.0,29.97,SSE,167,8.0,-999.0,31,-99.99,,,-99.99,,2013-03-10 21:12:00,
2013-03-10 17:23:00,61.0,31.0,29.96,SE,144,3.0,-999.0,32,-99.99,,,-99.99,,2013-03-10 21:23:00,
2013-03-10 17:32:00,61.0,30.0,29.96,SSE,159,4.0,-999.0,31,-99.99,,,-99.99,,2013-03-10 21:32:00,
2013-03-10 17:42:00,61.0,30.0,29.96,SSE,159,4.0,-999.0,31,-99.99,,,-99.99,,2013-03-10 21:42:00,
2013-03-10 17:53:00,62.0,31.0,29.96,South,172,6.0,-999.0,31,-99.99,,,-99.99,,2013-03-10 21:53:00,
2013-03-10 18:03:00,61.0,30.0,29.96,South,173,7.0,-999.0,31,-99.99,,,-99.99,,2013-03-10 22:03:00,
2013-03-10 18:12:00,61.0,30.0,29.96,South,173,7.0,-999.0,31,-99.99,,,-99.99,,2013-03-10 22:12:00,
2013-03-10 18:22:00,61.0,30.0,29.96,SSE,153,4.0,-999.0,31,-99.99,,,-99.99,,2013-03-10 22:22:00,
2013-03-10 18:32:00,60.0,30.0,29.96,SE,136,3.0,-999.0,32,-99.99,,,-99.99,,2013-03-10 22:32:00,
2013-03-10 18:43:00,60.0,30.0,29.96,SE,136,3.0,-999.0,32,-99.99,,,-99.99,,2013-03-10 22:43:00,
2013-03-10 18:53:00,60.0,31.0,29.96,South,169,2.0,-999.0,33,-99.99,,,-99.99,,2013-03-10 22:53:00,
2013-03-10 19:03:00,59.0,31.0,29.97,SE,145,2.0,-999.0,34,-99.99,,,-99.99,,2013-03-10 23:03:00,
2013-03-10 19:12:00,59.0,31.0,29.97,SE,145,2.0,-999.0,34,-99.99,,,-99.99,,2013-03-10 23:12:00,
2013-03-10 19:23:00,58.0,30.0,29.97,SE,141,3.0,-999.0,34,-99.99,,,-99.99,,2013-03-10 23:23:00,
2013-03-10 19:33:00,57.0,30.0,29.97,SE,138,3.0,-999.0,36,-99.99,,,-99.99,,2013-03-10 23:33:00,
2013-03-10 19:42:00,57.0,30.0,29.97,SE,138,3.0,-999.0,36,-99.99,,,-99.99,,2013-03-10 23:42:00,
2013-03-10 19:52:00,57.0,30.0,29.98,SSE,159,2.0,-999.0,36,-99.99,,,-99.99,,2013-03-10 23:52:00,
2013-03-10 20:02:00,56.0,30.0,29.99,SSE,152,3.0,-999.0,37,-99.99,,,-99.99,,2013-03-11 00:02:00,
2013-03-10 20:13:00,56.0,30.0,29.99,SSE,152,3.0,-999.0,37,-99.99,,,-99.99,,2013-03-11 00:13:00,
2013-03-10 20:23:00,56.0,30.0,30.00,SSE,161,4.0,-999.0,37,-99.99,,,-99.99,,2013-03-11 00:23:00,
2013-03-10 20:33:00,55.0,30.0,30.00,SSE,163,3.0,-999.0,38,-99.99,,,-99.99,,2013-03-11 00:33:00,
2013-03-10 20:43:00,55.0,30.0,30.00,SSE,163,3.0,-999.0,38,-99.99,,,-99.99,,2013-03-11 00:43:00,
2013-03-10 20:53:00,55.0,30.0,29.99,SSE,151,3.0,-999.0,38,-99.99,,,-99.99,,2013-03-11 00:53:00,
2013-03-10 21:03:00,55.0,30.0,29.99,SSE,156,3.0,-999.0,38,-99.99,,,-99.99,,2013-03-11 01:03:00,
2013-03-10 21:13:00,55.0,30.0,29.99,SSE,156,3.0,-999.0,38,-99.99,,,-99.99,,2013-03-11 01:13:00,
2013-03-10 21:23:00,55.0,30.0,30.01,SSE,162,2.0,-999.0,38,-99.99,,,-99.99,,2013-03-11 01:23:00,
2013-03-10 21:32:00,54.0,30.0,30.00,SSE,161,3.0,-999.0,39,-99.99,,,-99.99,,2013-03-11 01:32:00,
2013-03-10 21:43:00,54.0,30.0,30.00,SSE,161,3.0,-999.0,39,-99.99,,,-99.99,,2013-03-11 01:43:00,
2013-03-10 21:53:00,54.0,30.0,30.01,SSE,165,3.0,-999.0,39,-99.99,,,-99.99,,2013-03-11 01:53:00,
2013-03-10 22:02:00,54.0,30.0,30.01,SSE,165,3.0,-999.0,39,-99.99,,,-99.99,,2013-03-11 02:02:00,
2013-03-10 22:12:00,54.0,30.0,30.01,SSE,165,3.0,-999.0,39,-99.99,,,-99.99,,2013-03-11 02:12:00,
2013-03-10 22:23:00,54.0,30.0,30.01,SE,140,2.0,-999.0,39,-99.99,,,-99.99,,2013-03-11 02:23:00,
2013-03-10 22:32:00,54.0,30.0,30.01,SSE,155,4.0,-999.0,39,-99.99,,,-99.99,,2013-03-11 02:32:00,
2013-03-10 22:42:00,54.0,30.0,30.01,SSE,155,4.0,-999.0,39,-99.99,,,-99.99,,2013-03-11 02:42:00,
2013-03-10 22:53:00,54.0,30.0,30.01,SSE,155,4.0,-999.0,39,-99.99,,,-99.99,,2013-03-11 02:53:00,
2013-03-10 23:02:00,55.0,30.0,30.01,SSE,165,3.0,-999.0,38,-99.99,,,-99.99,,2013-03-11 03:02:00,
2013-03-10 23:12:00,55.0,30.0,30.01,SSE,165,3.0,-999.0,38,-99.99,,,-99.99,,2013-03-11 03:12:00,
2013-03-10 23:22:00,55.0,30.0,29.99,SSE,163,3.0,-999.0,38,-99.99,,,-99.99,,2013-03-11 03:22:00,
2013-03-10 23:32:00,55.0,29.0,29.97,SE,137,4.0,-999.0,37,-99.99,,,-99.99,,2013-03-11 03:32:00,
2013-03-10 23:42:00,55.0,29.0,29.97,SE,137,4.0,-999.0,37,-99.99,,,-99.99,,2013-03-11 03:42:00,
2013-03-10 23:53:00,54.0,29.0,29.97,SE,146,3.0,-999.0,38,-99.99,,,-99.99,,2013-03-11 03:53:00,